Flag for Sweden Weather past 2 weeks in Gävle, Sweden

Now
3 °F

Frigid.


Feels Like: 3 °F
Forecast: 26 / 35 °F
Wind: No wind

Location: Films Kyrkby

Current Time: Dec 29, 2014 at 6:31:07 AM

Latest Report: Dec 29, 2014 at 5:00 AM


Visibility: 31 mi

Pressure: 30.28 "Hg

Humidity: 87%

Dew point: 0 °F

Location of GävleLocation

Historic Weather in Gävle — Graph

°F

Gävle temperature yesterday

Maximum temperature yesterday: 18 °F (at 1:00 PM)
Minimum temperature yesterday: 0 °F (at 2:00 AM)
Average temperature yesterday: 13 °F

Past Weeks' High & Low Weather Summary

 TemperatureHumidityPressure
High40 °F (Dec 15, 1:00 PM)99% (Dec 19, 3:00 AM)30.29 "Hg (Dec 19, 3:00 AM)
Low-2 °F (Dec 27, 9:00 AM)71% (Dec 21, 2:00 PM)29.00 "Hg (Dec 19, 6:00 PM)
Average24 °F91%29.53 "Hg
* Reported Dec 14 5:00 AM — Dec 29 5:00 AM, Gävle, Weather by CustomWeather, © 2014

Note: Actual official high and low records may vary slightly from our data, if they occured in-between our weather recording intervals... More about our weather records

Advertising

Gävle weather history for previous 24 hours

 ConditionsComfort  
Time TempWeatherWind HumidityBarometerVisibility
5:00 AM
Dec 29
3 °FFrigid.No wind87%30.28 "Hg31 mi
4:00 AM3 °FFrigid.1 mph88%30.28 "Hg25 mi
3:00 AM3 °FFrigid.1 mph88%30.29 "Hg31 mi
2:00 AM4 °FFrigid.No wind87%30.28 "Hg28 mi
1:00 AM6 °FFrigid.No wind89%30.27 "Hg28 mi
12:00 AM9 °FFrigid.No wind89%30.27 "Hg9 mi
11:00 PM
Dec 28
12 °FCold.No wind90%30.28 "Hg16 mi
10:00 PM15 °FSnow flurries. Overcast.1 mph93%30.27 "Hg6 mi
9:00 PM15 °FCold.1 mph93%30.27 "Hg7 mi
8:00 PM15 °FCold.1 mph93%30.26 "HgN/A
7:00 PM14 °FCold.1 mph92%30.24 "Hg10 mi
6:00 PM13 °FSnow flurries. Overcast.No wind92%30.24 "Hg9 mi
5:00 PM11 °FCold.No wind91%30.23 "Hg13 mi
4:00 PM11 °FCold.1 mph92%30.22 "Hg10 mi
3:00 PM16 °FSnow flurries. Overcast.1 mph93%30.20 "Hg7 mi
2:00 PM17 °FSnow flurries. Cloudy.1 mph92%30.19 "Hg4 mi
1:00 PM18 °FLight snow. Cloudy.No wind92%30.18 "Hg7 mi
12:00 PM18 °FSleet. Cloudy.1 mph93%30.19 "Hg1 mi
11:00 AM15 °FCold.1 mph90%30.17 "Hg15 mi
10:00 AM14 °FLight snow. Cloudy.1 mph89%30.16 "Hg4 mi
9:00 AM14 °FLight snow. Cloudy.1 mph89%30.15 "Hg7 mi
8:00 AM16 °FCold.1 mph91%30.13 "Hg25 mi
7:00 AM15 °FCold.2 mph89%30.11 "Hg28 mi
6:00 AM15 °FCold.2 mph89%30.10 "Hg31 mi
Weather by CustomWeather, © 2014

See weather overviewHow to use our weather pages